Skip Page Navigation
NASA JPL Caltech
NASA Logo - Jet Propulsion Laboratory + View the NASA Portal
+ Center for Near-Earth Object Studies
JPL Home Earth Solar System Stars & Galaxies Technology
JPL Solar System Dynamics
BODIES ORBITS EPHEMERIDES TOOLS PHYSICAL DATA DISCOVERY FAQ SITE MAP
JPL Small-Body Database Browser
Search: [ help ]  
134546 (1999 RZ136)
Classification: Main-belt Asteroid          SPK-ID: 2134546
Ephemeris | Orbit Diagram | Orbital Elements | Mission Design | Physical Parameters | Discovery Circumstances | Close-Approach Data ]

[ show orbit diagram ]
Orbital Elements at Epoch 2459000.5 (2020-May-31.0) TDB
Reference: JPL 14 (heliocentric ecliptic J2000)
 Element Value Uncertainty (1-sigma)   Units 
e .1272605752528054 6.8282e-08  
a 2.247681295177925 1.0111e-08 au
q 1.961640080568611 1.5349e-07 au
i 6.912658885713031 7.189e-06 deg
node 172.6216865846466 3.4043e-05 deg
peri 180.2885766247382 3.8252e-05 deg
M 43.42969690961632 1.795e-05 deg
tp 2458852.014234660714
(2020-Jan-03.51423466)
6.1068e-05 TDB
period 1230.836946281031
3.37
8.3053e-06
2.274e-08
d
yr
n .2924839078707692 1.9736e-09 deg/d
Q 2.533722509787238 1.1398e-08 au
  Orbit Determination Parameters
   # obs. used (total)      520  
   data-arc span      7851 days (21.49 yr)  
   first obs. used      1996-11-03  
   last obs. used      2018-05-03  
   planetary ephem.      DE431  
   SB-pert. ephem.      SB431-N16  
   condition code      0  
   norm. resid. RMS      .62394  
   source      ORB  
   producer      Otto Matic  
   solution date      2019-Jul-13 06:25:28  

Additional Information
 Earth MOID = .956238 au 
 Jupiter MOID = 2.88842 au 
 T_jup = 3.609 
[ show covariance matrix ]

Ephemeris | Orbit Diagram | Orbital Elements | Mission Design | Physical Parameters | Discovery Circumstances | Close-Approach Data ]

Physical Parameter Table
Parameter Symbol Value Units Sigma Reference Notes
absolute magnitude H 16.2   n/a MPO436657  

134546 (1999 RZ136)          Discovered 1999-Sep-09 by LINEAR at Socorro
Reference: 20060907/Numbers.arcLast Updated: 2006-09-10

[ show close-approach data ]
Alternate Designations
 1999 RZ136 = 1996 VD31 
Ephemeris | Orbit Diagram | Orbital Elements | Mission Design | Physical Parameters | Discovery Circumstances | Close-Approach Data ]
ABOUT SSD CREDITS/AWARDS PRIVACY/COPYRIGHT GLOSSARY LINKS
FirstGov 2020-Oct-19 22:43 UT
(server date/time)  
NASA Home Page
Site Manager:   Ryan S. Park
Webmaster  Alan B. Chamberlin